Weather in Nizhneudinsk

Russia / Irkutsk Oblast     54°54′04″N   99°01′34″E
temp.,
°C
wind,
m/s
gust,
m/s
humid.,
%
clouds,
%
prec.,
mm/h
press.,
hPa
HPBL,
m
9 august, tue
tue923:00+13wsw11795 0.0 101211
02:00+11sw11857 0.0 101210
05:00+10sw00875 0.0 101210
08:00+14sse0074100 0.0 101292
11:00+21e125381 0.0 1011654
14:00+24e1241100 0.0 10101900
17:00+22ne224888 0.0 10091157
20:00+18se016990 0.0 100921
10 august, wed
wed1023:00+15sse118328 0.6 101015
02:00+12nw009517 1.2 101010
05:00+11ssw00976 0.5 101010
08:00+13s129446 0.9 1009145
11:00+17n1182100 0.7 1009448
14:00+19nnw347824 3.6 1008553
17:00+20n236541 0.9 10081143
20:00+17w1186100 1.9 100912
11 august, thu
thu1123:00+12sw219463 0.3 101013
02:00+13wsw1191100 0.3 100912
05:00+11w119542 0.0 101011
08:00+13wsw119351 0.2 101044
11:00+18wnw378221 1.3 1009981
14:00+22nw574927 1.4 10081969
17:00+19nnw2763100 0.0 1009422
20:00+17nnw22765 0.0 100929
12 august, fri
fri1223:00+13sw11905 0.0 101111
02:00+11sw119215 0.0 101111
05:00+13ssw2284100 0.1 101038
08:00+15sse118779 0.2 101066
11:00+19nw017899 0.8 1009314
14:00+16ne1294100 3.8 1010170
17:00+20wnw1270100 0.2 1009718
20:00+17nnw2288100 0.9 100940
13 august, sat
sat1323:00+13wnw219719 0.7 101017
02:00+12wsw119743 0.7 101011
05:00+11wsw119722 0.0 100910
08:00+13nnw119450 0.0 1010116
11:00+16sse118578 0.8 1009221
14:00+20se22568 1.4 10081286
17:00+21ene025257 0.0 10071104
20:00+17s00640 0.0 100711